Location: Windsor
(43.2292°N, 89.3015°W)
Time: 06:23:20
(UTC+00:00)

First-Move - Pass Details

Date: 09 July 2022
Orbit: 572 x 658 km, 97.6° (Epoch: 11 August)

Event Time Altitude Azimuth Distance (km) Brightness Sun altitude
Rises 09:43:17 0° 16° (NNE) 2,982 ? -7.1°
Reaches altitude 10° 09:45:33 10° 21° (NNE) 2,073 ? -6.8°
Maximum altitude 09:50:01 56° 100° (E) 788 ? -6.2°
Drops below altitude 10° 09:54:28 10° 178° (S) 2,066 ? -5.6°
Sets 09:56:42 0° 183° (S) 2,970 ? -5.2°
